When you browse on this site, cookies collect data to enhance your experience and personalize the content and advertising you see.
Visit our Privacy Policy to learn more. By continuing to use the site, you agree to this use of cookies and data.
  • în România
  • Lista ţărilor
  • Pe 7 zile
  • Temperatura apei
  • Meteo pe hartă
  • Widget-uri
  • user-avatar
    Intrare

    Meteo pe oră la Aci Bonaccorsi

    Astăzi, 15 Septembrie, Duminică

    Timp Temperatura Precipitaţii Vânt Presiune Umiditate
    00:00 +23°C° 0 mm 1 m/s 741 mmHg 62%
    01:00 +23°C° 0 mm 1 m/s 740 mmHg 63%
    02:00 +23°C° 0 mm 1 m/s 740 mmHg 63%
    03:00 +22°C° 0 mm 1 m/s 740 mmHg 62%
    04:00 +22°C° 0 mm 1 m/s 739 mmHg 62%
    05:00 +23°C° 0 mm 1 m/s 740 mmHg 59%
    06:00 +23°C° 0 mm 1 m/s 740 mmHg 55%
    07:00 +24°C° 0 mm 1 m/s 741 mmHg 52%
    08:00 +26°C° 0 mm 1 m/s 741 mmHg 49%
    09:00 +27°C° 0 mm 1 m/s 741 mmHg 46%
    10:00 +29°C° 0 mm 1 m/s 741 mmHg 43%
    11:00 +29°C° 0 mm 1 m/s 741 mmHg 42%
    12:00 +30°C° 0 mm 2 m/s 741 mmHg 41%
    13:00 +30°C° 0 mm 2 m/s 740 mmHg 39%
    14:00 +30°C° 0 mm 2 m/s 740 mmHg 40%
    15:00 +30°C° 0 mm 2 m/s 740 mmHg 41%
    16:00 +29°C° 0 mm 3 m/s 739 mmHg 42%
    17:00 +28°C° 0 mm 2 m/s 739 mmHg 46%
    18:00 +26°C° 0 mm 2 m/s 739 mmHg 51%
    19:00 +25°C° 0 mm 1 m/s 740 mmHg 56%
    20:00 +24°C° 0 mm 1 m/s 740 mmHg 57%
    21:00 +24°C° 0 mm 1 m/s 739 mmHg 58%
    22:00 +24°C° 0 mm 1 m/s 739 mmHg 59%
    23:00 +24°C° 0 mm 1 m/s 739 mmHg 60%

    Mâine, 16 Septembrie, Luni

    Timp Temperatura Precipitaţii Vânt Presiune Umiditate
    00:00 +23°C° 0 mm 1 m/s 739 mmHg 62%
    01:00 +23°C° 0 mm 1 m/s 739 mmHg 63%
    02:00 +23°C° 0 mm 1 m/s 739 mmHg 63%
    03:00 +23°C° 0 mm 1 m/s 738 mmHg 63%
    04:00 +23°C° 0 mm 1 m/s 738 mmHg 63%
    05:00 +23°C° 0 mm 1 m/s 738 mmHg 61%
    06:00 +24°C° 0 mm 1 m/s 738 mmHg 58%
    07:00 +23°C° 0 mm 0 m/s 738 mmHg 56%
    08:00 +26°C° 0 mm 1 m/s 738 mmHg 50%
    09:00 +28°C° 0 mm 1 m/s 738 mmHg 44%
    10:00 +29°C° 0 mm 1 m/s 739 mmHg 39%
    11:00 +30°C° 0 mm 1 m/s 738 mmHg 38%
    12:00 +30°C° 0 mm 2 m/s 738 mmHg 37%
    13:00 +31°C° 0 mm 2 m/s 738 mmHg 35%
    14:00 +30°C° 0 mm 2 m/s 738 mmHg 38%
    15:00 +30°C° 0 mm 2 m/s 737 mmHg 41%
    16:00 +29°C° 0 mm 2 m/s 737 mmHg 44%
    17:00 +28°C° 0 mm 2 m/s 737 mmHg 50%
    18:00 +26°C° 0 mm 2 m/s 737 mmHg 56%
    19:00 +25°C° 0 mm 1 m/s 737 mmHg 62%
    20:00 +24°C° 0 mm 1 m/s 737 mmHg 62%
    21:00 +24°C° 0 mm 1 m/s 737 mmHg 63%
    22:00 +24°C° 0 mm 1 m/s 737 mmHg 64%
    23:00 +24°C° 0 mm 1 m/s 737 mmHg 64%

    Poimâine, 17 Septembrie, Marţi

    Timp Temperatura Precipitaţii Vânt Presiune Umiditate
    00:00 +23°C° 0 mm 1 m/s 737 mmHg 64%
    01:00 +23°C° 0 mm 2 m/s 737 mmHg 64%
    02:00 +23°C° 0 mm 1 m/s 736 mmHg 64%
    03:00 +23°C° 0 mm 1 m/s 736 mmHg 64%
    04:00 +23°C° 0 mm 1 m/s 736 mmHg 64%
    05:00 +23°C° 0 mm 1 m/s 736 mmHg 63%
    06:00 +24°C° 0 mm 1 m/s 736 mmHg 61%
    07:00 +24°C° 0 mm 1 m/s 736 mmHg 60%
    08:00 +26°C° 0 mm 1 m/s 736 mmHg 55%
    09:00 +27°C° 0 mm 1 m/s 736 mmHg 50%
    10:00 +29°C° 0 mm 1 m/s 737 mmHg 46%
    11:00 +30°C° 0 mm 1 m/s 736 mmHg 44%
    12:00 +30°C° 0 mm 2 m/s 736 mmHg 42%
    13:00 +31°C° 0 mm 2 m/s 736 mmHg 41%
    14:00 +30°C° 0 mm 3 m/s 736 mmHg 43%
    15:00 +30°C° 0 mm 3 m/s 735 mmHg 46%
    16:00 +29°C° 0 mm 3 m/s 735 mmHg 49%
    17:00 +28°C° 0 mm 2 m/s 735 mmHg 54%
    18:00 +26°C° 0 mm 2 m/s 735 mmHg 60%
    19:00 +25°C° 0 mm 1 m/s 735 mmHg 65%
    20:00 +25°C° 0 mm 1 m/s 735 mmHg 66%
    21:00 +24°C° 0 mm 1 m/s 735 mmHg 67%
    22:00 +24°C° 0 mm 2 m/s 735 mmHg 68%
    23:00 +24°C° 0 mm 1 m/s 735 mmHg 68%

    18 Septembrie, Miercuri

    Timp Temperatura Precipitaţii Vânt Presiune Umiditate
    00:00 +23°C° 0 mm 1 m/s 735 mmHg 68%
    01:00 +23°C° 0 mm 1 m/s 735 mmHg 68%
    02:00 +23°C° 0 mm 1 m/s 735 mmHg 66%
    03:00 +23°C° 0 mm 1 m/s 735 mmHg 64%
    04:00 +23°C° 0 mm 2 m/s 734 mmHg 62%
    05:00 +23°C° 0 mm 1 m/s 735 mmHg 59%
    06:00 +24°C° 0 mm 1 m/s 735 mmHg 55%
    07:00 +24°C° 0 mm 1 m/s 735 mmHg 52%
    08:00 +26°C° 0 mm 1 m/s 735 mmHg 47%
    09:00 +28°C° 0 mm 1 m/s 735 mmHg 43%
    10:00 +29°C° 0 mm 1 m/s 735 mmHg 39%
    11:00 +30°C° 0 mm 1 m/s 735 mmHg 37%
    12:00 +31°C° 0 mm 2 m/s 735 mmHg 35%
    13:00 +32°C° 0 mm 2 m/s 734 mmHg 34%
    14:00 +31°C° 0 mm 2 m/s 734 mmHg 37%
    15:00 +31°C° 0 mm 2 m/s 734 mmHg 41%
    16:00 +30°C° 0 mm 2 m/s 734 mmHg 44%
    17:00 +29°C° 0.1 mm 2 m/s 734 mmHg 51%
    18:00 +27°C° 0.1 mm 2 m/s 734 mmHg 58%
    19:00 +26°C° 0.1 mm 2 m/s 734 mmHg 65%
    20:00 +25°C° 0.1 mm 2 m/s 734 mmHg 65%
    21:00 +25°C° 0.1 mm 2 m/s 734 mmHg 64%
    22:00 +25°C° 0.1 mm 2 m/s 735 mmHg 64%
    23:00 +25°C° 0 mm 2 m/s 734 mmHg 65%

    19 Septembrie, Joi

    Timp Temperatura Precipitaţii Vânt Presiune Umiditate
    00:00 +25°C° 0 mm 1 m/s 734 mmHg 65%
    01:00 +24°C° 0 mm 1 m/s 734 mmHg 66%
    02:00 +24°C° 0 mm 1 m/s 734 mmHg 67%
    03:00 +24°C° 0 mm 1 m/s 734 mmHg 68%
    04:00 +24°C° 0 mm 2 m/s 734 mmHg 69%
    05:00 +24°C° 0 mm 2 m/s 734 mmHg 68%
    06:00 +24°C° 0 mm 2 m/s 733 mmHg 67%
    07:00 +25°C° 0 mm 3 m/s 733 mmHg 66%
    08:00 +26°C° 0 mm 3 m/s 734 mmHg 60%
    09:00 +28°C° 0 mm 2 m/s 734 mmHg 53%
    10:00 +30°C° 0 mm 2 m/s 734 mmHg 46%
    11:00 +30°C° 0 mm 2 m/s 734 mmHg 43%
    12:00 +31°C° 0 mm 3 m/s 734 mmHg 40%
    13:00 +33°C° 0 mm 3 m/s 734 mmHg 38%
    14:00 +31°C° 0 mm 3 m/s 733 mmHg 40%
    15:00 +32°C° 0 mm 4 m/s 733 mmHg 42%
    16:00 +30°C° 0 mm 4 m/s 733 mmHg 45%
    17:00 +28°C° 0 mm 4 m/s 733 mmHg 52%
    18:00 +27°C° 0 mm 4 m/s 733 mmHg 59%
    19:00 +25°C° 0 mm 4 m/s 733 mmHg 67%
    20:00 +25°C° 0 mm 3 m/s 734 mmHg 67%
    21:00 +24°C° 0 mm 3 m/s 734 mmHg 67%
    22:00 +24°C° 0 mm 2 m/s 734 mmHg 67%
    23:00 +24°C° 0 mm 2 m/s 734 mmHg 67%

    20 Septembrie, Vineri

    Timp Temperatura Precipitaţii Vânt Presiune Umiditate
    00:00 +23°C° 0 mm 2 m/s 734 mmHg 68%
    01:00 +23°C° 0 mm 2 m/s 734 mmHg 68%
    02:00 +23°C° 0 mm 2 m/s 734 mmHg 68%
    03:00 +23°C° 0 mm 2 m/s 734 mmHg 69%
    04:00 +23°C° 0 mm 2 m/s 734 mmHg 69%
    05:00 +23°C° 0 mm 1 m/s 734 mmHg 67%
    06:00 +23°C° 0 mm 1 m/s 734 mmHg 66%
    07:00 +24°C° 0 mm 1 m/s 734 mmHg 64%
    08:00 +26°C° 0 mm 1 m/s 735 mmHg 59%
    09:00 +27°C° 0 mm 2 m/s 735 mmHg 53%
    10:00 +29°C° 0 mm 2 m/s 736 mmHg 47%
    11:00 +29°C° 0.2 mm 3 m/s 736 mmHg 49%
    12:00 +29°C° 0.2 mm 3 m/s 736 mmHg 51%
    13:00 +29°C° 0.2 mm 4 m/s 735 mmHg 52%
    14:00 +28°C° 0.5 mm 4 m/s 735 mmHg 57%
    15:00 +27°C° 0.5 mm 4 m/s 735 mmHg 61%
    16:00 +26°C° 0.5 mm 4 m/s 735 mmHg 66%
    17:00 +25°C° 0.6 mm 3 m/s 736 mmHg 73%
    18:00 +24°C° 0.6 mm 3 m/s 736 mmHg 79%
    19:00 +22°C° 0.6 mm 3 m/s 736 mmHg 86%
    20:00 +22°C° 0.1 mm 3 m/s 736 mmHg 86%
    21:00 +22°C° 0.1 mm 3 m/s 737 mmHg 86%
    22:00 +21°C° 0.1 mm 3 m/s 737 mmHg 86%
    23:00 +21°C° 0.1 mm 3 m/s 737 mmHg 84%
    Arată mai mult